Regional Weather Roundup
Issued by NWS Little Rock, AR

Home | Current Version | Previous Version | Graphics & Text | Print | Product List | Glossary On
Versions: 1 2 3 4 5 6 7 8 9 10 11 12 13 14 15 16 17 18 19 20 21 22 23 24 25 26 27 28 29 30 31 32 33 34 35 36 37 38 39 40 41 42 43 44 45 46 47 48 49 50
000
ASUS44 KLZK 172005
RWRLZK

WEATHER ROUNDUP FOR ARKANSAS
NATIONAL WEATHER SERVICE LITTLE ROCK AR
300 PM CDT FRI APR 17 2015

NOTE: "FAIR" INDICATES FEW OR NO CLOUDS BELOW 12,000 FEET WITH NO
SIGNIFICANT WEATHER AND/OR OBSTRUCTIONS TO VISIBILITY.

ARZ001-003-010-029-172100-
NORTHWEST ARKANSAS

CITY           SKY/WX    TMP DP  RH WIND       PRES   REMARKS
FAYETTEVILLE   MOSUNNY   76  59  55 CALM      29.98F
FORT SMITH     MOSUNNY   79  60  52 E5        29.96F
HARRISON       LGT RAIN  71  62  73 NE6       30.02F
BENTONVILLE    MOSUNNY   75  61  60 E7        30.00F
ROGERS         MOSUNNY   74  60  61 VRB5      30.00F
SILOAM SPGS    PTSUNNY   75  61  60 S3        29.99F
HIGHFILL       MOSUNNY   74  60  61 E7        29.98F
SPRINGDALE     PTSUNNY   75  61  60 NE7       30.00F
$$

ARZ004-005-016-172100-
NORTH CENTRAL ARKANSAS

CITY           SKY/WX    TMP DP  RH WIND       PRES   REMARKS
BATESVILLE     CLOUDY    73  64  73 S8        30.03S
FLIPPIN          N/A     73 N/A N/A NW14      29.99F
MTN HOME       CLOUDY    71  60  68 MISG      30.00F
$$

ARZ040-041-172100-
WEST CENTRAL ARKANSAS

CITY           SKY/WX    TMP DP  RH WIND       PRES   REMARKS
MENA           CLOUDY    81  63  54 E6        29.99S
MOUNT IDA      SUNNY     78  63  59 SE5       29.97F
$$

ARZ009-017-025-026-028-172100-
NORTHEAST ARKANSAS

CITY           SKY/WX    TMP DP  RH WIND       PRES   REMARKS
CORNING        LGT RAIN  75  63  64 SE5       30.02F
JONESBORO      CLOUDY    69  65  86 S5        30.01F
NEWPORT        PTSUNNY   76  62  61 SW5       30.03F
WALNUT RIDGE   MOSUNNY   73  63  68 S5        30.02F
BLYTHEVILLE    CLOUDY    71  65  81 SE6       30.03F
NW BLYTHEVILLE PTSUNNY   70  64  83 NE7       30.03F
$$

ARZ022-023-033-042-044-172100-
CENTRAL ARKANSAS

CITY           SKY/WX    TMP DP  RH WIND       PRES   REMARKS
LITTLE ROCK    PTSUNNY   78  63  59 E16       30.00F
N LITTLE ROCK  PTSUNNY   78  64  61 E14G20    30.00F
JACKSONVILLE   MOSUNNY   76  63  64 SE8       29.99F
SEARCY         LGT RAIN  67  64  90 NW3       30.03F
HOT SPRINGS    CLOUDY    78  62  57 N6        29.98F
RUSSELLVILLE   MOSUNNY   78  64  61 VRB5      29.98F
CLINTON        PTSUNNY   72  68  88 E6        30.02F
$$

ARZ036-172100-
EAST ARKANSAS

CITY           SKY/WX    TMP DP  RH WIND       PRES   REMARKS
WEST MEMPHIS   CLOUDY    70  65  84 CALM      30.00F
$$

ARZ050-053-066-070-073-172100-
SOUTHWEST ARKANSAS

CITY           SKY/WX    TMP DP  RH WIND       PRES   REMARKS
ARKADELPHIA    FAIR      83  67  58 CALM      29.97F HX  85
CAMDEN         PTSUNNY   84  61  45 N7        29.96S
TEXARKANA      MOSUNNY   79  63  57 NE5       29.97F
EL DORADO      PTSUNNY   80  62  54 VRB3      29.98S
DE QUEEN       PTSUNNY   81  62  52 VRB5      29.95F
$$

ARZ056-057-069-172100-
SOUTHEAST ARKANSAS

CITY           SKY/WX    TMP DP  RH WIND       PRES   REMARKS
PINE BLUFF     MOSUNNY   75  65  70 E9        29.99F
STUTTGART      CLOUDY    75  63  64 SE6       30.01F
MONTICELLO     CLOUDY    73  65  75 CALM      29.99F

$$





USA.gov is the U.S. government's official web portal to all federal, state and local government web resources and services.